Flag for Germany Weather past 2 weeks in Regensburg, Bavaria, Germany

Now
62 °F

Clear.


Feels Like: 62 °F
Forecast: 61 / 75 °F
Wind: 2 mph from North

Location: Regensburg

Current Time: Aug 2, 2014 at 3:28:47 AM

Latest Report: Aug 2, 2014 at 3:00 AM


Visibility: 9 mi

Pressure: 29.83 "Hg

Humidity: 91%

Dew point: 59 °F

Location of RegensburgLocation

Historic Weather in Regensburg — Graph

°F

Regensburg temperature yesterday

Maximum temperature yesterday: 80 °F (at 6:00 PM)
Minimum temperature yesterday: 54 °F (at 6:00 AM)
Average temperature yesterday: 67 °F

Past Weeks' High & Low Weather Summary

 TemperatureHumidityPressure
High91 °F (Jul 20, 3:00 PM)99% (Jul 29, 8:00 PM)30.14 "Hg (Jul 29, 8:00 PM)
Low54 °F (Aug 1, 6:00 AM)26% (Jul 18, 7:00 PM)29.65 "Hg (Jul 29, 6:00 PM)
Average70 °F70%29.87 "Hg
* Reported Jul 18 2:00 AM — Aug 2 2:00 AM, Regensburg, Weather by CustomWeather, © 2014

Note: Actual official high and low records may vary slightly from our data, if they occured in-between our weather recording intervals... More about our weather records

Advertising

Regensburg weather history for previous 24 hours

 ConditionsComfort  
Time TempWeatherWind HumidityBarometerVisibility
2:00 AM
Aug 2
65 °FClear.1 mph83%29.83 "Hg16 mi
1:00 AM66 °FClear.1 mph80%29.84 "Hg15 mi
12:00 AM69 °FClear.3 mph74%29.83 "Hg17 mi
11:00 PM
Aug 1
71 °FPassing clouds.3 mph67%29.83 "Hg19 mi
10:00 PM69 °FPassing clouds.1 mph70%29.83 "Hg16 mi
9:00 PM72 °FPassing clouds.2 mph61%29.81 "Hg22 mi
8:00 PM76 °FPartly sunny.3 mph52%29.79 "Hg22 mi
7:00 PM78 °FScattered clouds.2 mph47%29.78 "Hg28 mi
6:00 PM80 °FScattered clouds.1 mph40%29.78 "Hg22 mi
5:00 PM80 °FScattered clouds.1 mph44%29.80 "Hg19 mi
4:00 PM79 °FOvercast.2 mph45%29.81 "Hg22 mi
3:00 PM77 °FScattered clouds.2 mph46%29.83 "Hg22 mi
2:00 PM76 °FOvercast.3 mph53%29.84 "Hg25 mi
1:00 PM76 °FScattered clouds.5 mph52%29.86 "Hg15 mi
12:00 PM73 °FPassing clouds.2 mph53%29.88 "Hg17 mi
11:00 AM72 °FSunny.1 mph62%29.89 "Hg17 mi
10:00 AM70 °FSunny.2 mph72%29.90 "Hg10 mi
9:00 AM64 °FSunny.1 mph79%29.94 "Hg9 mi
8:00 AM57 °FSunny.1 mph94%29.96 "Hg7 mi
7:00 AM54 °FFog.2 mph98%29.96 "Hg3 mi
6:00 AM54 °FFog.2 mph97%29.97 "Hg3 mi
5:00 AM55 °FFog.2 mph97%29.97 "Hg4 mi
4:00 AM55 °FFog.2 mph97%29.98 "Hg4 mi
3:00 AM56 °FFog.2 mph97%29.98 "Hg4 mi
Weather by CustomWeather, © 2014

See weather overviewHow to use our weather pages